N571DW KMYL-ID75

Flight info

Callsign N571DW
Flight time N/A
Altitude 12000
Route CLASS
Aircraft C208/L-SDFGR/C

Departure

Time 2026-04-24 01:07
Airport McCall Municipal Airport (KMYL)

Arrival

Time N/A
Airport Riverlake Airport (ID75)
Time Latitude Longitude Altitude Speed Heading
2026-04-24 00:55 44.89572 -116.09967 5029 ft 0 kts 271°
2026-04-24 01:01 44.89572 -116.09973 5029 ft 3 kts 278°
2026-04-24 01:01 44.89589 -116.10042 5029 ft 12 kts 293°
2026-04-24 01:01 44.89575 -116.10125 5030 ft 13 kts 181°
2026-04-24 01:02 44.89449 -116.10121 5029 ft 23 kts 178°
2026-04-24 01:02 44.89259 -116.10114 5029 ft 31 kts 179°
2026-04-24 01:02 44.89067 -116.10107 5029 ft 29 kts 178°
2026-04-24 01:02 44.88925 -116.10103 5030 ft 31 kts 178°
2026-04-24 01:03 44.88745 -116.10097 5033 ft 26 kts 179°
2026-04-24 01:03 44.88534 -116.10091 5034 ft 33 kts 178°
2026-04-24 01:03 44.88375 -116.10086 5031 ft 14 kts 178°
2026-04-24 01:03 44.88358 -116.10092 5030 ft 0 kts 246°
2026-04-24 01:05 44.88355 -116.10107 5030 ft 6 kts 261°
2026-04-24 01:06 44.88396 -116.10160 5031 ft 4 kts
2026-04-24 01:06 44.88414 -116.10160 5028 ft 16 kts 360°
2026-04-24 01:06 44.88686 -116.10170 5032 ft 61 kts 357°
2026-04-24 01:06 44.89190 -116.10151 5151 ft 76 kts 354°
2026-04-24 01:07 44.89736 -116.10119 5324 ft 83 kts 353°
2026-04-24 01:07 44.90324 -116.10089 5552 ft 83 kts 356°
2026-04-24 01:07 44.90935 -116.10109 5662 ft 101 kts 352°
2026-04-24 01:07 44.91695 -116.10195 5782 ft 118 kts 351°
2026-04-24 01:08 44.92521 -116.10081 6102 ft 123 kts 11°
2026-04-24 01:08 44.93337 -116.09763 6507 ft 117 kts 11°
2026-04-24 01:08 44.94073 -116.09449 6924 ft 103 kts
2026-04-24 01:08 44.94729 -116.09218 7297 ft 96 kts
2026-04-24 01:09 44.95412 -116.08968 7481 ft 106 kts
2026-04-24 01:09 44.96145 -116.08712 7727 ft 111 kts 12°
2026-04-24 01:09 44.96881 -116.08356 8007 ft 112 kts 12°
2026-04-24 01:09 44.97624 -116.07992 8279 ft 112 kts 12°
2026-04-24 01:10 44.98353 -116.07623 8549 ft 110 kts 12°
2026-04-24 01:10 44.99078 -116.07264 8809 ft 110 kts 12°
2026-04-24 01:10 44.99779 -116.06961 9078 ft 103 kts 359°
2026-04-24 01:10 45.00482 -116.06962 9391 ft 100 kts 354°
2026-04-24 01:11 45.01175 -116.06956 9638 ft 99 kts 354°
2026-04-24 01:11 45.01855 -116.06930 9902 ft 97 kts 354°
2026-04-24 01:11 45.02526 -116.06925 10160 ft 96 kts 351°
2026-04-24 01:11 45.03192 -116.06967 10389 ft 96 kts 349°
2026-04-24 01:12 45.03844 -116.07006 10562 ft 90 kts 350°
2026-04-24 01:12 45.04439 -116.07016 10740 ft 81 kts 349°
2026-04-24 01:12 45.04981 -116.07034 10897 ft 74 kts 347°
2026-04-24 01:12 45.05477 -116.07052 11036 ft 71 kts 347°
2026-04-24 01:13 45.05976 -116.07066 11132 ft 72 kts 347°
2026-04-24 01:13 45.06464 -116.07082 11240 ft 69 kts 347°
2026-04-24 01:13 45.06985 -116.07097 11291 ft 79 kts 348°
2026-04-24 01:13 45.07557 -116.07111 11394 ft 86 kts 348°
2026-04-24 01:14 45.08182 -116.07125 11485 ft 92 kts 348°
2026-04-24 01:14 45.08841 -116.07141 11586 ft 100 kts 350°
2026-04-24 01:14 45.09568 -116.07163 11677 ft 109 kts 351°
2026-04-24 01:14 45.10349 -116.07180 11771 ft 116 kts 350°
2026-04-24 01:15 45.11181 -116.07205 11851 ft 123 kts 351°
2026-04-24 01:15 45.12056 -116.07226 11929 ft 128 kts 351°
2026-04-24 01:15 45.12966 -116.07247 12000 ft 133 kts 351°
2026-04-24 01:15 45.13905 -116.07275 12073 ft 137 kts 351°
2026-04-24 01:16 45.14876 -116.07291 12103 ft 143 kts 352°
2026-04-24 01:16 45.15886 -116.07324 12113 ft 146 kts 351°
2026-04-24 01:16 45.16912 -116.07350 12100 ft 152 kts 351°
2026-04-24 01:16 45.17994 -116.07373 12100 ft 155 kts 352°
2026-04-24 01:17 45.19055 -116.07400 12100 ft 154 kts 352°
2026-04-24 01:17 45.20128 -116.07423 12101 ft 156 kts 351°
2026-04-24 01:17 45.21218 -116.07460 12100 ft 157 kts 351°
2026-04-24 01:17 45.22323 -116.07491 12101 ft 160 kts 352°
2026-04-24 01:18 45.23441 -116.07518 12102 ft 161 kts 352°
2026-04-24 01:18 45.24566 -116.07549 12107 ft 162 kts 352°
2026-04-24 01:18 45.25692 -116.07577 12103 ft 161 kts 352°
2026-04-24 01:18 45.26810 -116.07607 12097 ft 159 kts 352°
2026-04-24 01:19 45.27898 -116.07631 12100 ft 158 kts 352°
2026-04-24 01:19 45.29004 -116.07664 12098 ft 159 kts 351°
2026-04-24 01:19 45.30107 -116.07694 12097 ft 159 kts 352°
2026-04-24 01:19 45.31212 -116.07717 12097 ft 159 kts 352°
2026-04-24 01:20 45.32314 -116.07749 12101 ft 158 kts 351°
2026-04-24 01:20 45.33418 -116.07779 12114 ft 160 kts 352°
2026-04-24 01:20 45.34545 -116.07811 12113 ft 162 kts 352°
2026-04-24 01:20 45.35678 -116.07844 12113 ft 164 kts 352°
2026-04-24 01:21 45.36823 -116.07870 12104 ft 164 kts 353°
2026-04-24 01:21 45.37947 -116.07890 12112 ft 164 kts 352°
2026-04-24 01:21 45.39087 -116.07934 12110 ft 164 kts 352°
2026-04-24 01:21 45.40230 -116.07959 12110 ft 165 kts 352°
2026-04-24 01:22 45.41381 -116.07992 12111 ft 164 kts 351°
2026-04-24 01:22 45.42492 -116.08021 12108 ft 155 kts 351°
2026-04-24 01:22 45.43554 -116.08044 12107 ft 151 kts 351°
2026-04-24 01:22 45.44598 -116.08074 12107 ft 149 kts 351°
2026-04-24 01:23 45.45641 -116.08101 12107 ft 151 kts 351°
2026-04-24 01:23 45.46699 -116.08133 12109 ft 153 kts 351°
2026-04-24 01:23 45.47766 -116.08164 12106 ft 153 kts 351°
2026-04-24 01:23 45.48817 -116.08191 12112 ft 154 kts 351°
2026-04-24 01:24 45.49895 -116.08218 12106 ft 156 kts 351°
2026-04-24 01:24 45.50981 -116.08247 12107 ft 156 kts 351°
2026-04-24 01:24 45.52061 -116.08268 12105 ft 155 kts 351°
2026-04-24 01:24 45.53137 -116.08302 12110 ft 155 kts 351°
2026-04-24 01:25 45.54215 -116.08332 12105 ft 155 kts 351°
2026-04-24 01:25 45.55285 -116.08368 12105 ft 154 kts 351°
2026-04-24 01:25 45.56367 -116.08389 12105 ft 156 kts 351°
2026-04-24 01:25 45.57452 -116.08415 12094 ft 154 kts 351°
2026-04-24 01:26 45.58517 -116.08449 12099 ft 153 kts 351°
2026-04-24 01:26 45.59581 -116.08475 12089 ft 151 kts 351°
2026-04-24 01:26 45.60621 -116.08506 12087 ft 152 kts 351°
2026-04-24 01:26 45.61656 -116.08532 12104 ft 147 kts 348°
2026-04-24 01:27 45.62690 -116.08579 12097 ft 150 kts 351°
2026-04-24 01:27 45.63745 -116.08581 12091 ft 152 kts 351°
2026-04-24 01:27 45.64810 -116.08610 12094 ft 153 kts 350°
2026-04-24 01:27 45.65873 -116.08641 12096 ft 154 kts 351°
2026-04-24 01:28 45.66961 -116.08672 12102 ft 158 kts 351°
2026-04-24 01:28 45.68066 -116.08704 12087 ft 158 kts 351°
2026-04-24 01:28 45.69148 -116.08737 12075 ft 153 kts 351°
2026-04-24 01:28 45.70196 -116.08758 12092 ft 150 kts 351°
2026-04-24 01:29 45.71241 -116.08786 12069 ft 153 kts 351°
2026-04-24 01:29 45.72309 -116.08815 12066 ft 153 kts 351°
2026-04-24 01:29 45.73382 -116.08844 12067 ft 154 kts 351°
2026-04-24 01:29 45.74454 -116.08874 12064 ft 154 kts 351°
2026-04-24 01:30 45.75523 -116.08903 12051 ft 153 kts 350°
2026-04-24 01:30 45.76579 -116.08935 12050 ft 151 kts 351°
2026-04-24 01:30 45.77629 -116.08957 12051 ft 151 kts 351°
2026-04-24 01:30 45.78683 -116.08985 12047 ft 151 kts 350°
2026-04-24 01:31 45.79736 -116.09018 12043 ft 151 kts 350°
2026-04-24 01:31 45.80782 -116.09055 12051 ft 149 kts 350°
2026-04-24 01:31 45.81824 -116.09075 12056 ft 151 kts 351°
2026-04-24 01:31 45.82866 -116.09101 12032 ft 152 kts 351°
2026-04-24 01:32 45.83906 -116.09145 12051 ft 148 kts 352°
2026-04-24 01:32 45.84936 -116.09152 12048 ft 147 kts 350°
2026-04-24 01:32 45.85959 -116.09183 12044 ft 147 kts 351°
2026-04-24 01:32 45.86971 -116.09217 12062 ft 144 kts 351°
2026-04-24 01:33 45.87981 -116.09220 12056 ft 146 kts 349°
2026-04-24 01:33 45.89004 -116.09265 12047 ft 148 kts 348°
2026-04-24 01:33 45.90037 -116.09296 12052 ft 148 kts 349°
2026-04-24 01:33 45.91061 -116.09321 12049 ft 146 kts 349°
2026-04-24 01:34 45.92064 -116.09348 12046 ft 145 kts 349°
2026-04-24 01:34 45.93075 -116.09375 12039 ft 144 kts 349°
2026-04-24 01:34 45.94079 -116.09402 12047 ft 144 kts 349°
2026-04-24 01:34 45.95081 -116.09429 12037 ft 144 kts 349°
2026-04-24 01:35 45.96082 -116.09456 12031 ft 144 kts 348°
2026-04-24 01:35 45.97080 -116.09486 12034 ft 143 kts 348°
2026-04-24 01:35 45.98076 -116.09510 12038 ft 142 kts 348°
2026-04-24 01:35 45.99063 -116.09537 12036 ft 142 kts 349°
2026-04-24 01:36 46.00048 -116.09564 12039 ft 141 kts 349°
2026-04-24 01:36 46.01019 -116.09591 12033 ft 141 kts 349°
2026-04-24 01:36 46.02004 -116.09618 12029 ft 142 kts 349°
2026-04-24 01:36 46.02990 -116.09645 12039 ft 142 kts 349°
2026-04-24 01:37 46.03979 -116.09671 12041 ft 143 kts 349°
2026-04-24 01:37 46.04972 -116.09698 12040 ft 142 kts 349°
2026-04-24 01:37 46.05967 -116.09720 12050 ft 144 kts 349°
2026-04-24 01:37 46.06978 -116.09757 12050 ft 146 kts 349°
2026-04-24 01:38 46.07965 -116.09812 12057 ft 137 kts 347°
2026-04-24 01:38 46.08932 -116.09816 12048 ft 140 kts 351°
2026-04-24 01:38 46.09902 -116.09819 12048 ft 139 kts 349°
2026-04-24 01:38 46.10871 -116.09852 12039 ft 139 kts 348°
2026-04-24 01:39 46.11840 -116.09882 12038 ft 138 kts 349°
2026-04-24 01:39 46.12800 -116.09907 12038 ft 137 kts 348°
2026-04-24 01:39 46.13743 -116.09940 12041 ft 137 kts 349°
2026-04-24 01:39 46.14698 -116.09964 12027 ft 138 kts 349°
2026-04-24 01:40 46.15653 -116.09988 12041 ft 136 kts 351°
2026-04-24 01:40 46.16595 -116.10008 12041 ft 135 kts 348°
2026-04-24 01:40 46.17537 -116.10053 12040 ft 135 kts 347°
2026-04-24 01:40 46.18482 -116.10077 12039 ft 136 kts 349°
2026-04-24 01:41 46.19433 -116.10090 12043 ft 137 kts 349°
2026-04-24 01:41 46.20388 -116.10112 12015 ft 133 kts 355°
2026-04-24 01:41 46.21294 -116.10117 12040 ft 131 kts 347°
2026-04-24 01:41 46.22156 -116.10186 12097 ft 121 kts 341°
2026-04-24 01:42 46.23042 -116.10227 12036 ft 133 kts 352°
2026-04-24 01:42 46.23974 -116.10192 12049 ft 134 kts 348°
2026-04-24 01:42 46.24900 -116.10228 12051 ft 133 kts 348°
2026-04-24 01:42 46.25832 -116.10262 12032 ft 135 kts 349°
2026-04-24 01:43 46.26751 -116.10208 12047 ft 131 kts 348°
2026-04-24 01:43 46.27654 -116.10295 12043 ft 131 kts 345°
2026-04-24 01:43 46.28568 -116.10366 12036 ft 133 kts 348°
2026-04-24 01:43 46.29499 -116.10375 12032 ft 134 kts 349°
2026-04-24 01:44 46.30418 -116.10408 11981 ft 132 kts 347°
2026-04-24 01:44 46.31224 -116.10389 12376 ft 108 kts 347°
2026-04-24 01:44 46.32032 -116.10438 12213 ft 124 kts 347°
2026-04-24 01:44 46.32945 -116.10468 12083 ft 136 kts 348°
2026-04-24 01:45 46.33907 -116.10493 12050 ft 139 kts 349°
2026-04-24 01:45 46.34862 -116.10512 12041 ft 130 kts 349°
2026-04-24 01:45 46.35655 -116.10501 12001 ft 98 kts 347°
2026-04-24 01:45 46.36268 -116.10501 11730 ft 89 kts 344°
2026-04-24 01:46 46.36913 -116.10574 11380 ft 89 kts 347°
2026-04-24 01:46 46.37403 -116.09782 9992 ft 180 kts 64°